Location: Centerville
(32.8776°N, 96.6203°W)
Time: 23:35:14
(UTC+00:00)

Cosmos 1459 Rocket - Pass Details

Date: 17 June 2021
Orbit: 937 x 999 km, 83.0° (Epoch: 01 August)

Event Time Altitude Azimuth Distance (km) Brightness Sun altitude
Rises 04:02:54 0° 355° (N) 3,601 7.9 -24.0°
Reaches altitude 10° 04:05:23 10° 356° (N) 2,653 7.0 -24.3°
Maximum altitude 04:11:27 84° 84° (E) 948 3.8 -25.1°
Enters shadow 04:12:39 60° 164° (SSE) 1,070 3.8 -25.2°
